Brenham, TX

2:17 AM CDT on April 20, 2018 (GMT -0500)
Brenham

Weather History for K11R - August, 2013

Change the Weather History Date:

Friday, August 2, 2013

  Actual Average (KCLL) Record (KCLL)
Temperature  
Mean Temperature 90 °F -  
Max Temperature 102 °F 96 °F 105 °F (1998)
Min Temperature 79 °F 72 °F 65 °F (1936)
Cooling Degree Days 26    
Growing Degree Days 40 (Base 50)    
Moisture  
Dew Point 69 °F    
Average Humidity 54    
Maximum Humidity 86    
Minimum Humidity 25    
Precipitation  
Precipitation 0.00 in - - ()
Sea Level Pressure  
Sea Level Pressure 29.96 in    
Wind  
Wind Speed 7 mph (South)    
Max Wind Speed 15 mph    
Max Gust Speed 20 mph    
Visibility 10 miles    
Events      
Averages and records for this station are not official NWS values.
T = Trace of Precipitation, MM = Missing Value Source: NWS Daily Summary

Daily Weather History Graph

Daily Weather History Graph

Search for Another Location

Airport or City:

Astronomy

Aug. 02, 2013 Rise Set
Actual Time 6:44 AM CDT 8:18 PM CDT
Civil Twilight 6:18 AM CDT 8:44 PM CDT
Nautical Twilight 5:47 AM CDT 9:15 PM CDT
Astronomical Twilight 5:15 AM CDT 9:47 PM CDT
Moon 3:09 AM CDT (8/2) 5:13 PM CDT (8/2)
Length of Visible Light 14h 25m
Length of Day
13h 33m
Waning Crescent, 15% of the Moon is Illuminated
Aug 2
Waning Crescent
Aug 6
New
Aug 14
First Quarter
Aug 20
Full
Aug 28
Last Quarter

Hourly Weather History & Observations

Time (CDT) Temp. Heat Index Dew Point Humidity Pressure Visibility Wind Dir Wind Speed Gust Speed Precip Events Conditions
12:15 AM 86.5 °F 89.6 °F 67.6 °F 53% 29.98 in 10.0 mi SSE 8.1 mph - N/A   Clear
12:35 AM 86.0 °F 89.1 °F 67.8 °F 54% 29.97 in 10.0 mi SSE 6.9 mph - N/A   Clear
12:55 AM 85.5 °F 89.1 °F 68.9 °F 57% 29.97 in 10.0 mi South 8.1 mph - N/A   Clear
1:15 AM 84.7 °F 89.1 °F 70.2 °F 61% 29.97 in 10.0 mi South 6.9 mph - N/A   Clear
1:35 AM 84.4 °F 89.7 °F 71.2 °F 65% 29.96 in 10.0 mi South 6.9 mph - N/A   Clear
1:55 AM 84.0 °F 89.6 °F 72.0 °F 67% 29.95 in 10.0 mi South 8.1 mph - N/A   Clear
2:15 AM 83.3 °F 89.0 °F 72.5 °F 70% 29.95 in 10.0 mi South 6.9 mph - N/A   Clear
2:35 AM 82.9 °F 88.5 °F 72.7 °F 71% 29.95 in 10.0 mi South 6.9 mph - N/A   Clear
2:55 AM 82.4 °F 87.9 °F 72.9 °F 73% 29.95 in 10.0 mi South 5.8 mph - N/A   Clear
3:15 AM 82.4 °F 87.9 °F 73.0 °F 73% 29.95 in 10.0 mi SSW 4.6 mph - N/A   Clear
3:35 AM 81.9 °F 87.3 °F 73.4 °F 75% 29.96 in 10.0 mi SW 5.8 mph - N/A   Clear
3:55 AM 81.7 °F 87.1 °F 73.4 °F 76% 29.96 in 10.0 mi SW 3.5 mph - N/A   Clear
4:15 AM 81.1 °F 86.2 °F 73.4 °F 77% 29.96 in 10.0 mi SW 3.5 mph - N/A   Clear
4:35 AM 80.8 °F 85.8 °F 73.6 °F 79% 29.95 in 10.0 mi SW 3.5 mph - N/A   Clear
4:55 AM 80.6 °F 85.4 °F 73.6 °F 79% 29.95 in 10.0 mi SW 3.5 mph - N/A   Clear
5:15 AM 80.6 °F 85.4 °F 73.6 °F 79% 29.95 in 10.0 mi Calm Calm - N/A   Clear
5:35 AM 79.9 °F - 73.8 °F 81% 29.95 in 10.0 mi South 3.5 mph - N/A   Clear
5:55 AM 79.7 °F - 73.8 °F 82% 29.96 in 10.0 mi South 3.5 mph - N/A   Clear
6:15 AM 79.7 °F - 73.8 °F 82% 29.97 in 10.0 mi SSW 3.5 mph - N/A   Clear
6:35 AM 79.7 °F - 73.9 °F 82% 29.97 in 10.0 mi Calm Calm - N/A   Clear
6:55 AM 79.0 °F - 73.8 °F 84% 29.98 in 10.0 mi Calm Calm - N/A   Clear
7:35 AM 79.0 °F - 74.5 °F 86% 29.99 in 10.0 mi South 3.5 mph - N/A   Mostly Cloudy
7:55 AM 80.2 °F 85.5 °F 75.2 °F 85% 29.99 in 10.0 mi SW 5.8 mph - N/A   Mostly Cloudy
8:15 AM 81.3 °F 87.8 °F 75.6 °F 83% 29.99 in 10.0 mi SW 6.9 mph - N/A   Scattered Clouds
8:35 AM 82.6 °F 90.2 °F 75.9 °F 80% 30.00 in 10.0 mi SSW 8.1 mph - N/A   Scattered Clouds
8:55 AM 83.3 °F 91.1 °F 75.4 °F 77% 30.00 in 10.0 mi SW 9.2 mph - N/A   Mostly Cloudy
9:15 AM 85.1 °F 93.3 °F 74.8 °F 71% 30.00 in 10.0 mi SSW 13.8 mph - N/A   Mostly Cloudy
9:35 AM 85.5 °F 93.4 °F 74.3 °F 69% 30.00 in 10.0 mi SSW 12.7 mph - N/A   Scattered Clouds
9:55 AM 87.1 °F 94.9 °F 73.6 °F 64% 30.01 in 10.0 mi SSW 10.4 mph - N/A   Scattered Clouds
10:15 AM 88.2 °F 95.5 °F 72.7 °F 60% 30.00 in 10.0 mi WSW 9.2 mph - N/A   Clear
10:35 AM 89.4 °F 95.8 °F 71.2 °F 55% 30.01 in 10.0 mi SW 6.9 mph - N/A   Clear
10:55 AM 89.8 °F 96.5 °F 71.8 °F 55% 30.00 in 10.0 mi SW 4.6 mph - N/A   Clear
11:15 AM 91.4 °F 97.8 °F 70.9 °F 51% 30.00 in 10.0 mi SW 10.4 mph - N/A   Clear
11:35 AM 91.2 °F 96.5 °F 69.8 °F 49% 30.00 in 10.0 mi SW 6.9 mph - N/A   Clear
11:55 AM 92.1 °F 97.7 °F 69.6 °F 48% 29.99 in 10.0 mi SSW 10.4 mph - N/A   Clear
12:15 PM 93.2 °F 98.3 °F 68.9 °F 45% 29.99 in 10.0 mi SSW 9.2 mph - N/A   Clear
12:35 PM 94.3 °F 99.3 °F 68.5 °F 43% 29.98 in 10.0 mi SSW 6.9 mph - N/A   Clear
12:55 PM 95.0 °F 99.0 °F 67.1 °F 40% 29.98 in 10.0 mi SW 8.1 mph - N/A   Clear
1:15 PM 94.6 °F 97.8 °F 66.0 °F 39% 29.98 in 10.0 mi Calm Calm - N/A   Clear
1:35 PM 95.9 °F 99.0 °F 65.7 °F 37% 29.97 in 10.0 mi SSW 6.9 mph - N/A   Clear
1:55 PM 96.3 °F 99.1 °F 65.7 °F 36% 29.97 in 10.0 mi West 4.6 mph - N/A   Clear
2:15 PM 97.9 °F 100.3 °F 64.4 °F 33% 29.95 in 10.0 mi South 6.9 mph - N/A   Clear
2:35 PM 98.8 °F 100.8 °F 63.1 °F 31% 29.94 in 10.0 mi SSE 5.8 mph - N/A   Clear
2:55 PM 98.2 °F 100.4 °F 63.7 °F 32% 29.93 in 10.0 mi Calm Calm - N/A   Clear
3:15 PM 99.5 °F 100.9 °F 62.4 °F 29% 29.92 in 10.0 mi Calm Calm - N/A   Clear
3:35 PM 99.7 °F 101.2 °F 61.9 °F 29% 29.92 in 10.0 mi Calm Calm - N/A   Clear
3:55 PM 101.1 °F 103.0 °F 62.2 °F 28% 29.91 in 10.0 mi Calm Calm - N/A   Clear
4:15 PM 101.7 °F 103.9 °F 63.3 °F 28% 29.90 in 10.0 mi SSE 5.8 mph - N/A   Clear
4:35 PM 102.0 °F 104.6 °F 63.0 °F 28% 29.90 in 10.0 mi South 9.2 mph - N/A   Clear
4:55 PM 101.7 °F 103.3 °F 61.5 °F 27% 29.90 in 10.0 mi SSE 9.2 mph - N/A   Clear
5:15 PM 101.5 °F 101.9 °F 59.9 °F 25% 29.90 in 10.0 mi SSE 6.9 mph 16.1 mph N/A   Clear
5:35 PM 101.5 °F 101.9 °F 60.1 °F 25% 29.90 in 10.0 mi South 5.8 mph 9.2 mph N/A   Clear
5:55 PM 101.1 °F 101.3 °F 59.0 °F 25% 29.89 in 10.0 mi SSE 6.9 mph - N/A   Clear
6:15 PM 100.8 °F 101.3 °F 60.1 °F 26% 29.89 in 10.0 mi SE 6.9 mph - N/A   Clear
6:35 PM 100.8 °F 101.3 °F 60.3 °F 26% 29.90 in 10.0 mi South 5.8 mph - N/A   Clear
6:55 PM 100.0 °F 101.2 °F 61.7 °F 28% 29.90 in 10.0 mi SSE 5.8 mph - N/A   Clear
7:15 PM 99.5 °F 100.9 °F 62.1 °F 29% 29.90 in 10.0 mi South 8.1 mph - N/A   Clear
7:35 PM 98.6 °F 100.0 °F 62.4 °F 30% 29.90 in 10.0 mi SSE 6.9 mph - N/A   Clear
7:55 PM 97.5 °F 100.3 °F 64.9 °F 34% 29.90 in 10.0 mi SE 9.2 mph - N/A   Clear
8:15 PM 96.3 °F 99.7 °F 65.8 °F 37% 29.91 in 10.0 mi SE 8.1 mph - N/A   Clear
8:35 PM 95.2 °F 98.8 °F 66.6 °F 39% 29.92 in 10.0 mi SSE 10.4 mph 17.3 mph N/A   Clear
8:55 PM 94.5 °F 98.5 °F 67.1 °F 41% 29.92 in 10.0 mi SSE 9.2 mph - N/A   Scattered Clouds
9:15 PM 93.2 °F 97.7 °F 68.4 °F 44% 29.93 in 10.0 mi South 10.4 mph - N/A   Scattered Clouds
9:35 PM 91.9 °F 96.9 °F 68.9 °F 47% 29.94 in 10.0 mi SSE 9.2 mph - N/A   Clear
9:55 PM 90.9 °F 95.3 °F 68.9 °F 48% 29.95 in 10.0 mi SSE 9.2 mph 17.3 mph N/A   Clear
10:15 PM 90.0 °F 94.5 °F 69.1 °F 50% 29.97 in 10.0 mi South 15.0 mph 19.6 mph N/A   Clear
10:35 PM 89.1 °F 94.6 °F 70.3 °F 54% 29.98 in 10.0 mi South 15.0 mph - N/A   Clear
10:55 PM 88.0 °F 94.2 °F 71.6 °F 58% 29.99 in 10.0 mi South 15.0 mph 19.6 mph N/A   Clear
11:15 PM 87.1 °F 94.1 °F 72.5 °F 62% 29.99 in 10.0 mi South 12.7 mph 18.4 mph N/A   Clear
11:35 PM 86.4 °F 93.0 °F 72.5 °F 63% 29.99 in 10.0 mi SSE 5.8 mph - N/A   Clear
11:55 PM 85.5 °F 91.8 °F 72.7 °F 65% 29.99 in 10.0 mi SSE 8.1 mph - N/A   Clear